SCP
0 0 0 0 0 0 0 0 0 0 0 0 0 0 0 0 0 0 0 0 0 0 0 0 0 0 0 0 0 0 0 0 0 0 0 0 0 0 0 0 0 0 0 0 0 0 0 0 0 0 0 0 0 0
0 0 0 0 0 0 0 0 0 0 0 0 0 0 0 0 0 0 0 0 -0 0 0 0 0 0 0 0 0 0 0 0 0 0 0 0 0 0 0 0 0 0 0 0 0 0 0 0 0 0 0 0 0 0
0 0 0 0 0 0 0 0 0 0 0 0 0 0 0 0 0 0 0 0 0 0 0 0 0 0 0 0 0 0 0 0 0 0 0 0 0 0 0 0 0 0 0 0 0 0 0 0 0 0 0 0 0 0
0 0 0 0 0 0 0 0 0 0 0 0 0 0 0 0 0 0 0 0 0 0 0 0 0 0 0 0 0 0 0 0 0 0 0 0 0 0 0 0 0 0 0 0 0 0 0 0 0 0 0 0 0 0
0 0 0 0 0 0 0 0 0 0 0 0 0 0 0 0 0 0 0 0 0 0 0 0 0 0 0 0 0 0 0 0 0 0 0 0 0 0 0 0 0 0 0 0 0 0 0 0 0 0 0 0 0 0
0 0 -0 0 0 0 0 0 0 0 0 0 0 0 0 0 0 0 0 0 0 0 0 0 0 0 0 0 0 0 0 0 0 0 0 0 0 0 0 0 0 0 0 0 0 0 0 0 0 0 0 0 0 0
0 0 0 0 0 0 0 0 0 0 0 0 0 0 0 0 0 0 0 0 0 0 0 0 0 0 0 0 0 0 0 0 0 0 0 0 0 0 0 0 0 0 0 0 0 0 0 0 0 0 0 0 0 0
-0 -0 0 0 -0 -0 -0 0 0 0 0 0 0 0 0 0 0 0 0 0 0 0 0 0 0 0 0 0 0 0 0 0 0 0 0 0 0 0 0 0 0 0 0 0 0 0 0 0 0 0 0 0 0 0
-0 -0 -0 -0 0 0 0 0 0 0 0 0 0 0 0 0 0 0 0 0 0 0 0 0 0 0 0 0 0 0 0 0 0 0 0 0 0 0 0 0 0 0 0 0 0 0 0 0 0 0 0 0 0 0
-0 -0 -0 -0 0 0 0 0 0 0 0 0 0 0 0 0 0 0 0 0 0 0 0 0 0 0 0 0 0 0 0 0 0 0 0 0 0 0 0 0 0 0 0 0 0 0 0 0 0 0 0 0 0 0
-0 -0 -0 -0 -0 -0 0 0 0 0 0 0 0 0 0 0 0 0 0 0 0 0 0 0 0 0 0 0 0 0 0 0 0 0 0 0 0 0 0 0 0 0 0 0 0 0 0 0 0 0 0 0 0 0
-0 -0 -0 -0 -0 -0 0 0 0 0 0 0 0 0 0 0 0 0 0 0 0 0 0 0 0 0 0 0 0 0 0 0 0 0 0 0 0 0 0 0 0 0 0 0 0 0 0 0 0 0 0 0 0 0
-0 -0 -0 -0 -0 -0 0 0 0 0 0 0 0 0 0 0 0 0 0 0 0 0 0 0 0 0 0 0 0 0 0 0 0 0 0 0 0 0 0 0 0 0 0 0 0 0 0 0 0 0 0 0 0 0
0 0 0 0 -0 -0 0 0 0 0 0 0 0 0 0 0 0 0 0 0 0 0 0 0 0 0 0 0 0 0 0 0 0 0 0 0 0 0 0 0 0 0 0 0 0 0 0 0 0 0 0 0 0 0
0 0 0 0 -0 -0 0 0 0 0 0 0 0 0 0 0 0 0 0 0 0 0 0 0 0 0 0 0 0 0 0 0 0 0 0 0 0 0 0 0 0 0 0 0 0 0 0 0 0 0 0 0 0 0
0 0 0 0 -0 -0 0 0 0 0 0 0 0 0 0 0 0 0 0 0 0 0 0 0 0 0 0 0 0 0 0 0 0 0 0 0 0 0 0 0 0 0 0 0 0 0 0 0 0 0 0 0 0 0
0 0 0 0 0 0 -0 0 0 0 0 0 0 0 0 0 0 0 0 0 0 0 0 0 0 0 0 0 0 0 0 0 0 0 0 0 0 0 0 0 0 0 0 0 0 0 0 0 0 0 0 0 0 0
0 0 0 0 0 0 0 0 0 0 0 0 0 0 0 0 0 0 0 0 0 0 0 0 0 0 0 0 0 0 0 0 0 0 0 0 0 0 0 0 0 0 0 0 0 0 0 0 0 0 0 0 0 0
0 0 0 0 0 0 0 0 0 0 0 0 0 0 0 0 0 0 0 0 0 0 0 0 0 0 0 0 0 0 0 0 0 0 0 0 0 0 0 0 0 0 0 0 0 0 0 0 0 0 0 0 0 0
0 0 0 0 0 0 0 0 0 0 0 0 0 0 0 0 0 0 0 0 0 0 0 0 0 0 0 0 0 0 0 0 0 0 0 0 0 0 0 0 0 0 0 0 0 0 0 0 0 0 0 0 0 0
0 0 0 0 0 0 0 0 0 0 0 0 0 0 0 0 0 0 0 0 0 0 0 0 0 0 0 0 0 0 0 0 0 0 0 0 0 0 0 0 0 0 0 0 0 0 0 0 0 0 0 0 0 0
0 0 0 0 0 0 0 0 0 0 0 0 0 0 0 0 0 0 0 0 0 0 0 0 0 0 0 0 0 0 0 0 0 0 0 0 0 0 0 0 0 0 0 0 0 0 0 0 0 0 0 0 0 0
0 0 0 0 0 0 0 0 0 0 0 0 0 0 0 0 0 0 0 0 0 0 0 0 0 0 0 0 0 0 0 0 0 0 0 0 0 0 0 0 0 0 0 0 0 0 0 0 0 0 0 0 0 0
0 0 0 0 0 0 0 0 0 0 0 0 0 0 0 0 0 0 0 0 0 0 0 0 0 0 0 0 0 0 0 0 0 0 0 0 0 0 0 0 0 0 0 0 0 0 0 0 0 0 0 0 0 0
0 0 0 0 0 0 0 0 0 0 0 0 0 0 0 0 0 0 0 0 0 0 0 0 0 0 0 0 0 0 0 0 0 0 0 0 0 0 0 0 0 0 0 0 0 0 0 0 0 0 0 0 0 0
0 0 0 0 0 0 0 0 0 0 0 0 0 0 0 0 0 0 0 0 0 0 0 0 0 0 0 0 0 0 0 0 0 0 0 0 0 0 0 0 0 0 0 0 0 0 0 0 0 0 0 0 0 0
0 0 0 0 0 0 0 0 0 0 0 0 0 0 0 0 0 0 0 0 0 0 0 0 0 0 0 0 0 0 0 0 0 0 0 0 0 0 0 0 0 0 0 0 0 0 0 0 0 0 0 0 0 0
0 0 0 0 0 0 0 0 0 0 0 0 0 0 0 0 0 0 0 0 0 0 0 0 0 0 0 0 0 0 0 0 0 0 0 0 0 0 0 0 0 0 0 0 0 0 0 0 0 0 0 0 0 0
0 0 0 0 0 0 0 0 0 0 0 0 0 0 0 0 0 0 0 0 0 0 0 0 0 0 0 0 0 0 0 0 0 0 0 0 0 0 0 0 0 0 0 0 0 0 0 0 0 0 0 0 0 0
0 0 0 0 0 0 0 0 0 0 0 0 0 0 0 0 0 0 0 0 0 0 0 0 0 0 0 0 0 0 0 0 0 0 0 0 0 0 0 0 0 0 0 0 0 0 0 0 0 0 0 0 0 0
0 0 0 0 0 0 0 0 0 0 0 0 0 0 0 0 0 -0 -0 -0 0 0 0 0 0 0 0 0 0 0 0 0 0 0 0 0 0 0 0 0 0 0 0 0 0 0 0 0 0 0 0 0 0 0
0 0 0 0 0 0 0 0 0 0 0 0 0 0 0 0 0 -0 -0 -0 -0 -0 -0 -0 0 0 0 0 0 0 0 0 0 0 0 0 0 0 0 0 0 0 0 0 0 0 0 0 0 0 0 0 0 0
0 0 0 0 0 0 0 0 0 0 0 0 0 0 0 0 0 0 0 0 0 0 -0 -0 -0 -0 -0 -0 0 0 0 0 0 0 0 -0 0 0 0 0 0 0 0 0 0 0 0 0 0 0 0 0 0 0
Wind_Speed_500mb
31 31 32 36 46 48 47 49 52 50 50 52 54 58 60 61 57 58 47 45 71 24 28 53 52 34 30 31 9 10 11 2 5 5 7 7 6 11 6 4 11 16 14 9 6 5 19 22 8 12 8 22 29 20
32 34 35 40 41 41 52 53 54 55 56 57 57 58 56 57 57 55 52 40 36 41 15 57 59 62 58 57 57 36 7 13 21 7 2 6 4 2 8 7 5 5 11 11 15 13 2 42 1 15 25 31 15 8
37 40 44 46 47 50 49 53 57 57 59 58 58 59 55 54 51 50 55 37 30 39 32 39 57 69 63 55 45 32 19 16 17 12 13 4 7 7 8 9 5 7 8 5 7 11 11 23 24 13 21 24 6 8
31 40 47 50 53 56 56 56 57 61 61 60 57 59 52 51 51 55 52 58 59 7 7 18 50 69 72 69 59 56 42 36 23 21 9 5 5 12 6 5 9 11 23 13 7 3 12 20 17 22 6 10 21 24
42 42 43 50 53 55 54 57 60 64 63 62 57 61 52 48 45 46 55 53 43 53 3 4 19 54 71 77 81 69 53 38 35 12 5 5 9 8 3 4 7 21 12 11 9 16 11 14 29 14 14 17 24 30
46 50 50 56 48 51 54 58 62 67 66 65 62 58 54 48 44 44 39 57 62 60 19 3 14 25 64 78 77 76 63 58 43 22 10 12 13 13 7 7 14 37 24 30 12 21 25 21 20 18 23 34 39 39
52 60 59 60 64 60 57 58 60 67 65 60 59 58 56 51 53 56 11 15 53 55 10 4 4 20 46 61 58 52 64 56 32 28 16 22 15 28 6 13 12 28 31 35 35 28 22 28 21 29 38 40 42 43
56 69 69 89 89 75 74 53 56 63 61 57 56 57 53 49 49 52 56 10 37 36 18 5 4 7 39 22 18 47 36 43 38 23 20 12 18 9 6 40 27 38 32 40 39 34 38 42 43 44 42 40 40 40
56 67 75 79 41 37 51 44 56 62 57 52 52 51 47 53 44 45 58 53 34 28 10 12 10 9 37 14 22 24 26 9 23 9 10 27 7 13 20 41 49 53 55 61 52 54 56 51 45 44 41 40 41 44
55 60 72 55 11 17 25 41 55 63 57 53 52 30 19 39 44 32 29 28 35 22 12 3 12 8 36 13 9 16 17 7 9 9 33 10 12 57 66 70 45 54 55 53 50 48 52 53 48 44 45 45 49 54
52 54 52 55 15 5 8 36 56 59 54 54 24 21 17 35 44 23 15 16 13 9 22 21 24 5 27 8 8 17 6 8 11 9 16 11 8 41 75 72 58 58 53 52 52 53 40 40 38 42 46 48 48 48
47 53 50 37 45 9 15 14 48 63 49 55 30 27 28 21 15 12 10 6 7 11 11 13 23 35 10 20 6 13 11 9 13 21 10 9 15 53 62 78 82 68 59 58 58 54 49 48 45 42 41 41 41 43
42 48 45 34 40 39 8 32 43 48 47 35 24 18 18 11 12 13 14 5 4 5 25 19 8 33 17 17 5 11 13 9 19 9 9 10 26 63 72 76 77 73 68 65 60 55 50 44 40 38 36 37 40 41
40 44 42 26 39 35 22 16 39 67 45 26 20 17 13 11 12 12 14 21 25 53 49 48 20 10 16 6 5 9 2 8 13 12 13 6 51 74 75 75 72 71 68 62 56 48 41 35 33 32 32 35 37 38
39 42 31 27 43 38 27 21 26 79 43 17 15 9 10 6 7 4 17 10 19 37 42 27 13 11 4 6 5 6 5 9 12 12 8 38 53 66 67 65 67 65 59 54 46 39 32 27 26 27 29 33 34 35
41 37 12 43 45 35 26 3 15 48 18 9 8 8 2 5 5 2 8 3 11 23 36 27 10 10 12 7 10 13 13 10 8 9 20 34 52 59 65 66 58 53 47 42 37 30 26 23 20 21 24 26 28 30
38 11 32 38 33 29 18 2 6 14 13 8 3 13 9 9 3 3 7 12 15 19 13 7 15 13 9 6 12 5 11 7 6 6 25 41 55 64 63 56 52 47 41 34 29 24 18 14 14 16 18 21 22 23
41 32 32 28 27 18 4 9 11 12 11 8 6 3 7 10 5 5 4 9 12 9 3 7 12 10 10 17 8 7 10 13 19 24 29 37 49 50 43 44 41 36 33 28 21 15 11 10 11 12 14 15 15 16
36 29 25 17 20 7 6 10 9 8 6 5 9 12 10 8 8 8 3 9 14 8 2 5 8 7 5 4 4 6 20 31 33 39 42 40 39 42 41 38 35 29 24 18 14 11 11 11 10 10 11 11 9 9
15 16 16 12 14 4 10 12 12 12 6 8 10 10 6 4 6 6 16 10 10 5 12 7 5 4 5 4 4 14 14 36 55 51 40 37 38 36 33 29 27 24 20 18 16 13 11 10 10 11 11 10 8 7
12 9 10 1 5 17 15 10 13 10 7 8 6 7 5 7 10 16 19 17 14 11 5 10 11 11 17 22 22 26 37 35 29 19 41 48 39 33 29 27 24 21 17 14 12 11 10 11 11 11 10 9 8 8
6 6 2 12 11 12 17 17 11 7 4 6 5 8 9 5 9 14 18 18 11 9 5 11 15 18 20 27 32 33 26 22 23 28 30 30 31 29 27 23 20 18 16 14 13 13 14 14 13 11 11 11 11 11
5 6 11 14 9 14 6 9 6 10 6 4 3 6 5 5 10 13 8 11 8 11 13 17 19 19 20 23 24 24 21 20 23 27 30 26 26 23 21 19 17 15 14 15 16 16 17 15 14 13 13 13 14 15
10 13 19 16 25 4 8 15 10 9 9 8 6 5 7 6 20 6 6 5 6 7 10 12 13 13 14 16 18 17 16 16 14 16 18 18 16 16 16 18 17 17 17 18 20 19 17 16 17 16 16 17 18 19
9 25 18 14 17 12 13 10 13 10 7 6 6 7 7 15 4 7 3 1 1 4 6 8 9 9 13 14 15 14 13 13 12 12 12 12 13 13 13 15 16 17 18 18 19 18 17 17 18 17 18 19 21 23
18 21 13 4 12 8 4 7 8 5 4 7 4 11 9 4 7 4 2 1 2 6 8 10 11 9 9 9 10 10 9 10 9 9 10 11 13 13 14 15 15 15 17 18 19 18 16 17 18 19 20 22 25 27
11 9 13 16 6 6 9 9 4 6 8 7 6 10 7 8 4 3 4 2 2 4 5 6 6 6 6 5 4 5 7 8 8 7 7 10 12 13 14 15 16 19 13 15 16 16 16 17 20 22 24 27 28 31
9 16 7 16 11 13 8 4 6 4 4 5 3 9 5 3 4 5 5 3 2 4 5 6 6 5 5 4 4 4 5 6 7 7 7 9 9 10 11 12 13 12 12 12 14 16 18 21 23 26 29 31 32 34
11 12 5 9 7 11 9 4 2 3 6 4 3 3 5 4 5 7 6 3 3 3 4 4 4 4 4 5 5 5 6 7 9 8 7 7 9 9 10 11 12 13 15 16 18 20 21 24 27 30 33 35 35 38
11 15 6 4 7 5 4 6 5 8 8 8 8 8 9 6 5 5 2 3 5 6 5 4 4 5 5 5 6 7 8 9 8 8 7 8 7 6 7 9 13 16 19 22 23 25 27 30 32 36 40 42 43 45
8 9 5 7 4 3 5 11 8 8 7 6 9 8 9 10 4 4 1 4 5 5 5 5 6 5 4 5 6 7 6 6 7 9 11 11 12 14 17 19 20 22 23 25 28 30 33 36 38 40 43 45 45 48
11 10 4 5 2 3 6 12 5 3 3 4 3 7 9 9 6 4 6 0 4 5 6 7 7 7 10 11 10 10 10 10 10 11 13 14 15 18 20 21 22 25 27 29 31 34 36 40 42 43 46 47 49 51
4 6 7 3 4 4 12 13 10 10 2 4 5 8 8 7 4 5 6 4 3 9 10 11 12 10 8 9 10 11 12 13 15 17 18 20 21 23 25 26 29 31 33 35 36 38 41 43 46 47 51 55 58 61
Wind_Direction_500mb
285 284 284 275 266 264 258 252 252 252 243 241 237 234 230 229 227 229 240 249 211 221 211 201 205 183 187 196 153 158 106 254 56 117 135 191 134 212 119 177 178 169 163 180 134 111 268 177 99 178 197 142 142 144
284 284 283 277 275 272 257 255 249 244 246 247 238 230 230 228 220 224 234 249 250 231 244 228 226 227 228 221 206 182 202 157 173 110 131 112 119 83 150 210 171 209 186 176 179 205 142 183 289 186 158 151 144 131
286 283 279 277 274 269 264 258 252 244 238 241 237 228 222 222 221 218 233 222 218 226 249 232 220 220 222 225 228 194 214 182 180 136 152 152 168 125 163 233 105 249 160 150 94 236 189 176 151 155 156 134 23 328
304 284 280 275 269 265 260 258 251 244 238 235 232 223 215 220 224 224 224 239 234 196 229 220 228 218 218 219 219 220 222 203 185 171 125 144 146 189 204 170 180 186 151 166 253 255 110 172 168 145 166 254 298 302
323 319 310 299 273 265 258 254 253 242 234 229 224 220 212 215 218 226 228 232 233 219 256 223 228 219 221 223 219 221 220 209 178 146 107 189 152 121 2 53 245 179 164 184 212 179 169 178 179 246 272 285 294 293
320 315 308 300 301 264 262 256 250 238 227 224 217 212 210 211 212 218 231 234 224 217 239 248 216 242 216 215 221 222 220 210 200 192 175 184 175 159 142 205 233 195 202 217 205 239 227 232 254 258 281 298 297 295
325 317 309 302 293 278 264 253 246 226 218 218 215 211 211 210 210 206 216 224 221 216 196 212 238 202 213 208 213 211 211 205 198 196 188 159 183 173 117 230 137 191 228 230 221 215 226 236 248 267 280 278 280 282
324 321 317 309 293 269 244 240 229 212 207 209 210 207 207 209 215 218 214 181 178 179 206 234 189 168 178 169 175 200 202 204 205 185 170 148 139 134 231 243 231 234 223 217 216 219 243 261 263 266 266 269 271 273
329 331 325 332 299 237 209 218 207 200 198 201 201 199 202 206 209 216 219 214 204 180 196 174 159 188 171 153 162 170 180 193 180 171 185 162 157 208 225 225 227 218 205 221 234 249 253 252 251 256 262 266 269 274
334 337 339 0 25 173 200 201 197 193 189 190 187 186 184 204 203 200 197 198 209 209 235 225 164 175 173 158 150 137 178 182 184 190 146 202 208 226 232 232 233 233 227 222 218 220 232 242 246 254 259 263 272 280
333 337 344 3 356 309 261 204 190 183 183 188 181 179 176 172 175 191 199 193 159 176 188 195 199 151 191 152 169 202 169 171 182 189 185 185 217 222 224 228 230 229 223 217 222 234 235 241 248 251 259 267 271 275
329 338 343 353 8 315 207 189 179 182 184 191 175 147 164 178 191 193 177 163 170 188 179 163 186 197 205 187 150 174 186 167 209 145 163 202 231 219 220 227 227 223 213 213 215 221 237 249 254 259 263 270 281 290
324 333 336 342 359 348 262 210 199 195 192 169 180 166 161 207 195 186 172 254 152 149 165 158 168 181 175 225 208 188 184 173 119 176 198 218 210 214 218 218 212 210 209 214 219 230 239 246 251 257 269 281 288 292
321 326 329 326 348 340 321 249 215 194 185 188 184 179 190 168 209 193 179 193 194 187 185 188 171 165 171 179 210 194 130 137 177 191 210 226 208 213 209 212 209 209 212 217 222 227 229 234 249 265 276 283 287 292
318 318 311 335 340 336 337 303 226 183 188 172 178 220 184 179 63 135 172 173 193 195 181 165 173 149 158 192 185 123 168 208 192 193 215 212 211 207 200 200 201 205 206 207 208 208 216 233 250 265 278 287 294 298
319 313 279 338 341 339 347 311 148 162 111 89 58 117 12 51 313 111 134 142 210 181 172 171 165 190 205 191 181 191 172 197 218 213 208 193 188 189 188 190 191 192 192 194 196 202 212 224 243 265 281 290 294 296
319 250 312 333 342 342 349 204 78 68 82 73 13 58 102 66 101 64 157 194 194 177 183 143 191 196 121 188 192 199 194 208 309 171 170 176 179 175 175 177 179 180 181 184 190 196 205 223 245 264 278 286 288 294
304 300 316 329 345 353 36 65 78 73 72 58 118 110 89 72 86 50 275 206 198 217 198 178 141 193 180 172 213 192 149 102 112 136 144 153 159 156 161 166 165 167 171 175 178 187 209 235 254 264 265 269 275 285
315 303 297 348 349 353 73 56 62 99 111 140 96 73 76 87 71 31 312 209 216 210 295 211 166 186 162 20 338 45 169 142 147 136 133 137 143 146 155 159 159 161 164 165 171 188 207 221 236 247 252 258 266 272
307 284 309 345 357 61 76 45 50 70 49 44 49 41 54 55 356 12 33 101 123 76 42 34 53 15 319 345 112 125 144 143 136 131 135 142 142 148 154 154 154 158 166 172 181 191 205 214 220 219 225 232 235 239
308 308 327 359 65 60 79 59 57 63 92 69 40 47 25 28 29 21 5 28 59 29 71 64 92 93 93 90 108 115 119 129 155 157 154 148 151 152 150 150 156 160 165 166 176 186 191 199 207 205 211 211 220 236
334 340 77 61 69 70 72 52 82 84 80 100 73 40 36 23 11 12 350 51 59 37 50 108 103 106 104 104 112 124 114 103 106 123 137 142 144 150 156 158 156 158 163 170 181 194 198 201 201 201 210 217 228 243
69 41 57 43 87 50 34 38 82 36 84 343 43 50 30 6 357 1 68 49 66 47 84 99 106 108 113 117 119 117 115 104 105 111 126 138 149 152 159 163 168 173 178 188 193 198 203 210 212 212 225 234 245 256
69 48 31 36 28 38 11 24 33 30 55 31 32 44 358 312 346 58 74 10 37 71 95 109 114 112 116 115 115 119 116 116 123 130 136 140 149 159 169 178 184 191 202 206 202 203 209 219 226 229 238 249 259 267
72 11 18 6 18 29 31 13 358 34 41 329 43 3 347 339 49 57 73 300 128 131 126 128 114 131 156 137 132 139 148 150 152 145 148 164 172 180 190 197 203 213 217 215 220 213 213 224 232 240 250 258 267 274
64 8 37 324 358 47 350 51 28 5 357 33 350 299 326 334 53 44 306 344 138 163 165 171 175 157 143 138 150 159 170 180 180 187 187 189 194 196 198 208 207 216 217 220 230 223 220 229 241 252 261 268 274 277
59 344 17 27 19 52 59 44 70 69 50 24 324 348 7 62 13 307 332 331 131 155 151 156 165 162 151 156 176 183 196 198 200 211 216 215 211 206 208 211 204 211 212 218 225 231 238 249 258 265 270 274 280 283
77 28 68 358 38 36 115 59 43 43 302 340 334 23 90 141 219 337 340 344 173 149 159 160 162 162 158 163 171 184 192 188 189 198 212 208 203 207 212 215 218 222 229 235 241 246 254 262 268 272 275 279 282 285
51 6 16 24 38 46 49 96 208 12 349 337 112 295 270 279 312 314 324 271 216 188 168 150 145 143 149 152 162 176 188 196 196 197 193 183 190 206 215 227 235 237 245 252 258 261 265 269 271 275 279 284 287 289
18 9 69 60 73 24 354 17 3 339 328 315 299 305 301 315 334 343 313 190 183 189 176 160 160 163 156 163 171 175 177 185 192 201 203 197 197 210 234 248 254 257 260 262 265 268 271 276 281 283 288 290 293 295
0 2 66 56 114 92 356 344 328 321 314 308 313 296 313 319 346 32 215 206 199 178 177 167 164 159 157 160 172 183 193 209 221 226 230 235 241 248 255 258 262 267 271 273 274 275 277 279 282 284 286 288 291 293
17 39 78 62 347 6 353 350 326 300 279 286 286 315 332 323 319 28 16 153 193 180 169 175 165 173 193 203 208 213 226 235 246 256 261 263 265 267 270 273 274 275 277 279 281 282 283 285 287 289 292 293 295 297
34 34 50 54 35 18 358 353 12 359 299 332 347 340 338 334 271 27 21 20 184 191 195 198 209 224 227 233 244 253 262 267 269 270 272 272 272 274 277 278 279 280 281 282 283 285 287 289 291 293 294 297 299 300
Wind_Speed_850mb
31 31 32 36 46 48 47 49 52 50 50 52 54 58 60 61 57 58 47 45 71 24 28 53 52 34 30 31 9 10 11 2 5 5 7 7 6 11 6 4 11 16 14 9 6 5 19 22 8 12 8 22 29 20
32 34 35 40 41 41 52 53 54 55 56 57 57 58 56 57 57 55 52 40 36 41 15 57 59 62 58 57 57 36 7 13 21 7 2 6 4 2 8 7 5 5 11 11 15 13 2 42 1 15 25 31 15 8
37 40 44 46 47 50 49 53 57 57 59 58 58 59 55 54 51 50 55 37 30 39 32 39 57 69 63 55 45 32 19 16 17 12 13 4 7 7 8 9 5 7 8 5 7 11 11 23 24 13 21 24 6 8
31 40 47 50 53 56 56 56 57 61 61 60 57 59 52 51 51 55 52 58 59 7 7 18 50 69 72 69 59 56 42 36 23 21 9 5 5 12 6 5 9 11 23 13 7 3 12 20 17 22 6 10 21 24
42 42 43 50 53 55 54 57 60 64 63 62 57 61 52 48 45 46 55 53 43 53 3 4 19 54 71 77 81 69 53 38 35 12 5 5 9 8 3 4 7 21 12 11 9 16 11 14 29 14 14 17 24 30
46 50 50 56 48 51 54 58 62 67 66 65 62 58 54 48 44 44 39 57 62 60 19 3 14 25 64 78 77 76 63 58 43 22 10 12 13 13 7 7 14 37 24 30 12 21 25 21 20 18 23 34 39 39
52 60 59 60 64 60 57 58 60 67 65 60 59 58 56 51 53 56 11 15 53 55 10 4 4 20 46 61 58 52 64 56 32 28 16 22 15 28 6 13 12 28 31 35 35 28 22 28 21 29 38 40 42 43
56 69 69 89 89 75 74 53 56 63 61 57 56 57 53 49 49 52 56 10 37 36 18 5 4 7 39 22 18 47 36 43 38 23 20 12 18 9 6 40 27 38 32 40 39 34 38 42 43 44 42 40 40 40
56 67 75 79 41 37 51 44 56 62 57 52 52 51 47 53 44 45 58 53 34 28 10 12 10 9 37 14 22 24 26 9 23 9 10 27 7 13 20 41 49 53 55 61 52 54 56 51 45 44 41 40 41 44
55 60 72 55 11 17 25 41 55 63 57 53 52 30 19 39 44 32 29 28 35 22 12 3 12 8 36 13 9 16 17 7 9 9 33 10 12 57 66 70 45 54 55 53 50 48 52 53 48 44 45 45 49 54
52 54 52 55 15 5 8 36 56 59 54 54 24 21 17 35 44 23 15 16 13 9 22 21 24 5 27 8 8 17 6 8 11 9 16 11 8 41 75 72 58 58 53 52 52 53 40 40 38 42 46 48 48 48
47 53 50 37 45 9 15 14 48 63 49 55 30 27 28 21 15 12 10 6 7 11 11 13 23 35 10 20 6 13 11 9 13 21 10 9 15 53 62 78 82 68 59 58 58 54 49 48 45 42 41 41 41 43
42 48 45 34 40 39 8 32 43 48 47 35 24 18 18 11 12 13 14 5 4 5 25 19 8 33 17 17 5 11 13 9 19 9 9 10 26 63 72 76 77 73 68 65 60 55 50 44 40 38 36 37 40 41
40 44 42 26 39 35 22 16 39 67 45 26 20 17 13 11 12 12 14 21 25 53 49 48 20 10 16 6 5 9 2 8 13 12 13 6 51 74 75 75 72 71 68 62 56 48 41 35 33 32 32 35 37 38
39 42 31 27 43 38 27 21 26 79 43 17 15 9 10 6 7 4 17 10 19 37 42 27 13 11 4 6 5 6 5 9 12 12 8 38 53 66 67 65 67 65 59 54 46 39 32 27 26 27 29 33 34 35
41 37 12 43 45 35 26 3 15 48 18 9 8 8 2 5 5 2 8 3 11 23 36 27 10 10 12 7 10 13 13 10 8 9 20 34 52 59 65 66 58 53 47 42 37 30 26 23 20 21 24 26 28 30
38 11 32 38 33 29 18 2 6 14 13 8 3 13 9 9 3 3 7 12 15 19 13 7 15 13 9 6 12 5 11 7 6 6 25 41 55 64 63 56 52 47 41 34 29 24 18 14 14 16 18 21 22 23
41 32 32 28 27 18 4 9 11 12 11 8 6 3 7 10 5 5 4 9 12 9 3 7 12 10 10 17 8 7 10 13 19 24 29 37 49 50 43 44 41 36 33 28 21 15 11 10 11 12 14 15 15 16
36 29 25 17 20 7 6 10 9 8 6 5 9 12 10 8 8 8 3 9 14 8 2 5 8 7 5 4 4 6 20 31 33 39 42 40 39 42 41 38 35 29 24 18 14 11 11 11 10 10 11 11 9 9
15 16 16 12 14 4 10 12 12 12 6 8 10 10 6 4 6 6 16 10 10 5 12 7 5 4 5 4 4 14 14 36 55 51 40 37 38 36 33 29 27 24 20 18 16 13 11 10 10 11 11 10 8 7
12 9 10 1 5 17 15 10 13 10 7 8 6 7 5 7 10 16 19 17 14 11 5 10 11 11 17 22 22 26 37 35 29 19 41 48 39 33 29 27 24 21 17 14 12 11 10 11 11 11 10 9 8 8
6 6 2 12 11 12 17 17 11 7 4 6 5 8 9 5 9 14 18 18 11 9 5 11 15 18 20 27 32 33 26 22 23 28 30 30 31 29 27 23 20 18 16 14 13 13 14 14 13 11 11 11 11 11
5 6 11 14 9 14 6 9 6 10 6 4 3 6 5 5 10 13 8 11 8 11 13 17 19 19 20 23 24 24 21 20 23 27 30 26 26 23 21 19 17 15 14 15 16 16 17 15 14 13 13 13 14 15
10 13 19 16 25 4 8 15 10 9 9 8 6 5 7 6 20 6 6 5 6 7 10 12 13 13 14 16 18 17 16 16 14 16 18 18 16 16 16 18 17 17 17 18 20 19 17 16 17 16 16 17 18 19
9 25 18 14 17 12 13 10 13 10 7 6 6 7 7 15 4 7 3 1 1 4 6 8 9 9 13 14 15 14 13 13 12 12 12 12 13 13 13 15 16 17 18 18 19 18 17 17 18 17 18 19 21 23
18 21 13 4 12 8 4 7 8 5 4 7 4 11 9 4 7 4 2 1 2 6 8 10 11 9 9 9 10 10 9 10 9 9 10 11 13 13 14 15 15 15 17 18 19 18 16 17 18 19 20 22 25 27
11 9 13 16 6 6 9 9 4 6 8 7 6 10 7 8 4 3 4 2 2 4 5 6 6 6 6 5 4 5 7 8 8 7 7 10 12 13 14 15 16 19 13 15 16 16 16 17 20 22 24 27 28 31
9 16 7 16 11 13 8 4 6 4 4 5 3 9 5 3 4 5 5 3 2 4 5 6 6 5 5 4 4 4 5 6 7 7 7 9 9 10 11 12 13 12 12 12 14 16 18 21 23 26 29 31 32 34
11 12 5 9 7 11 9 4 2 3 6 4 3 3 5 4 5 7 6 3 3 3 4 4 4 4 4 5 5 5 6 7 9 8 7 7 9 9 10 11 12 13 15 16 18 20 21 24 27 30 33 35 35 38
11 15 6 4 7 5 4 6 5 8 8 8 8 8 9 6 5 5 2 3 5 6 5 4 4 5 5 5 6 7 8 9 8 8 7 8 7 6 7 9 13 16 19 22 23 25 27 30 32 36 40 42 43 45
8 9 5 7 4 3 5 11 8 8 7 6 9 8 9 10 4 4 1 4 5 5 5 5 6 5 4 5 6 7 6 6 7 9 11 11 12 14 17 19 20 22 23 25 28 30 33 36 38 40 43 45 45 48
11 10 4 5 2 3 6 12 5 3 3 4 3 7 9 9 6 4 6 0 4 5 6 7 7 7 10 11 10 10 10 10 10 11 13 14 15 18 20 21 22 25 27 29 31 34 36 40 42 43 46 47 49 51
4 6 7 3 4 4 12 13 10 10 2 4 5 8 8 7 4 5 6 4 3 9 10 11 12 10 8 9 10 11 12 13 15 17 18 20 21 23 25 26 29 31 33 35 36 38 41 43 46 47 51 55 58 61
Wind_Direction_850mb
285 284 284 275 266 264 258 252 252 252 243 241 237 234 230 229 227 229 240 249 211 221 211 201 205 183 187 196 153 158 106 254 56 117 135 191 134 212 119 177 178 169 163 180 134 111 268 177 99 178 197 142 142 144
284 284 283 277 275 272 257 255 249 244 246 247 238 230 230 228 220 224 234 249 250 231 244 228 226 227 228 221 206 182 202 157 173 110 131 112 119 83 150 210 171 209 186 176 179 205 142 183 289 186 158 151 144 131
286 283 279 277 274 269 264 258 252 244 238 241 237 228 222 222 221 218 233 222 218 226 249 232 220 220 222 225 228 194 214 182 180 136 152 152 168 125 163 233 105 249 160 150 94 236 189 176 151 155 156 134 23 328
304 284 280 275 269 265 260 258 251 244 238 235 232 223 215 220 224 224 224 239 234 196 229 220 228 218 218 219 219 220 222 203 185 171 125 144 146 189 204 170 180 186 151 166 253 255 110 172 168 145 166 254 298 302
323 319 310 299 273 265 258 254 253 242 234 229 224 220 212 215 218 226 228 232 233 219 256 223 228 219 221 223 219 221 220 209 178 146 107 189 152 121 2 53 245 179 164 184 212 179 169 178 179 246 272 285 294 293
320 315 308 300 301 264 262 256 250 238 227 224 217 212 210 211 212 218 231 234 224 217 239 248 216 242 216 215 221 222 220 210 200 192 175 184 175 159 142 205 233 195 202 217 205 239 227 232 254 258 281 298 297 295
325 317 309 302 293 278 264 253 246 226 218 218 215 211 211 210 210 206 216 224 221 216 196 212 238 202 213 208 213 211 211 205 198 196 188 159 183 173 117 230 137 191 228 230 221 215 226 236 248 267 280 278 280 282
324 321 317 309 293 269 244 240 229 212 207 209 210 207 207 209 215 218 214 181 178 179 206 234 189 168 178 169 175 200 202 204 205 185 170 148 139 134 231 243 231 234 223 217 216 219 243 261 263 266 266 269 271 273
329 331 325 332 299 237 209 218 207 200 198 201 201 199 202 206 209 216 219 214 204 180 196 174 159 188 171 153 162 170 180 193 180 171 185 162 157 208 225 225 227 218 205 221 234 249 253 252 251 256 262 266 269 274
334 337 339 0 25 173 200 201 197 193 189 190 187 186 184 204 203 200 197 198 209 209 235 225 164 175 173 158 150 137 178 182 184 190 146 202 208 226 232 232 233 233 227 222 218 220 232 242 246 254 259 263 272 280
333 337 344 3 356 309 261 204 190 183 183 188 181 179 176 172 175 191 199 193 159 176 188 195 199 151 191 152 169 202 169 171 182 189 185 185 217 222 224 228 230 229 223 217 222 234 235 241 248 251 259 267 271 275
329 338 343 353 8 315 207 189 179 182 184 191 175 147 164 178 191 193 177 163 170 188 179 163 186 197 205 187 150 174 186 167 209 145 163 202 231 219 220 227 227 223 213 213 215 221 237 249 254 259 263 270 281 290
324 333 336 342 359 348 262 210 199 195 192 169 180 166 161 207 195 186 172 254 152 149 165 158 168 181 175 225 208 188 184 173 119 176 198 218 210 214 218 218 212 210 209 214 219 230 239 246 251 257 269 281 288 292
321 326 329 326 348 340 321 249 215 194 185 188 184 179 190 168 209 193 179 193 194 187 185 188 171 165 171 179 210 194 130 137 177 191 210 226 208 213 209 212 209 209 212 217 222 227 229 234 249 265 276 283 287 292
318 318 311 335 340 336 337 303 226 183 188 172 178 220 184 179 63 135 172 173 193 195 181 165 173 149 158 192 185 123 168 208 192 193 215 212 211 207 200 200 201 205 206 207 208 208 216 233 250 265 278 287 294 298
319 313 279 338 341 339 347 311 148 162 111 89 58 117 12 51 313 111 134 142 210 181 172 171 165 190 205 191 181 191 172 197 218 213 208 193 188 189 188 190 191 192 192 194 196 202 212 224 243 265 281 290 294 296
319 250 312 333 342 342 349 204 78 68 82 73 13 58 102 66 101 64 157 194 194 177 183 143 191 196 121 188 192 199 194 208 309 171 170 176 179 175 175 177 179 180 181 184 190 196 205 223 245 264 278 286 288 294
304 300 316 329 345 353 36 65 78 73 72 58 118 110 89 72 86 50 275 206 198 217 198 178 141 193 180 172 213 192 149 102 112 136 144 153 159 156 161 166 165 167 171 175 178 187 209 235 254 264 265 269 275 285
315 303 297 348 349 353 73 56 62 99 111 140 96 73 76 87 71 31 312 209 216 210 295 211 166 186 162 20 338 45 169 142 147 136 133 137 143 146 155 159 159 161 164 165 171 188 207 221 236 247 252 258 266 272
307 284 309 345 357 61 76 45 50 70 49 44 49 41 54 55 356 12 33 101 123 76 42 34 53 15 319 345 112 125 144 143 136 131 135 142 142 148 154 154 154 158 166 172 181 191 205 214 220 219 225 232 235 239
308 308 327 359 65 60 79 59 57 63 92 69 40 47 25 28 29 21 5 28 59 29 71 64 92 93 93 90 108 115 119 129 155 157 154 148 151 152 150 150 156 160 165 166 176 186 191 199 207 205 211 211 220 236
334 340 77 61 69 70 72 52 82 84 80 100 73 40 36 23 11 12 350 51 59 37 50 108 103 106 104 104 112 124 114 103 106 123 137 142 144 150 156 158 156 158 163 170 181 194 198 201 201 201 210 217 228 243
69 41 57 43 87 50 34 38 82 36 84 343 43 50 30 6 357 1 68 49 66 47 84 99 106 108 113 117 119 117 115 104 105 111 126 138 149 152 159 163 168 173 178 188 193 198 203 210 212 212 225 234 245 256
69 48 31 36 28 38 11 24 33 30 55 31 32 44 358 312 346 58 74 10 37 71 95 109 114 112 116 115 115 119 116 116 123 130 136 140 149 159 169 178 184 191 202 206 202 203 209 219 226 229 238 249 259 267
72 11 18 6 18 29 31 13 358 34 41 329 43 3 347 339 49 57 73 300 128 131 126 128 114 131 156 137 132 139 148 150 152 145 148 164 172 180 190 197 203 213 217 215 220 213 213 224 232 240 250 258 267 274
64 8 37 324 358 47 350 51 28 5 357 33 350 299 326 334 53 44 306 344 138 163 165 171 175 157 143 138 150 159 170 180 180 187 187 189 194 196 198 208 207 216 217 220 230 223 220 229 241 252 261 268 274 277
59 344 17 27 19 52 59 44 70 69 50 24 324 348 7 62 13 307 332 331 131 155 151 156 165 162 151 156 176 183 196 198 200 211 216 215 211 206 208 211 204 211 212 218 225 231 238 249 258 265 270 274 280 283
77 28 68 358 38 36 115 59 43 43 302 340 334 23 90 141 219 337 340 344 173 149 159 160 162 162 158 163 171 184 192 188 189 198 212 208 203 207 212 215 218 222 229 235 241 246 254 262 268 272 275 279 282 285
51 6 16 24 38 46 49 96 208 12 349 337 112 295 270 279 312 314 324 271 216 188 168 150 145 143 149 152 162 176 188 196 196 197 193 183 190 206 215 227 235 237 245 252 258 261 265 269 271 275 279 284 287 289
18 9 69 60 73 24 354 17 3 339 328 315 299 305 301 315 334 343 313 190 183 189 176 160 160 163 156 163 171 175 177 185 192 201 203 197 197 210 234 248 254 257 260 262 265 268 271 276 281 283 288 290 293 295
0 2 66 56 114 92 356 344 328 321 314 308 313 296 313 319 346 32 215 206 199 178 177 167 164 159 157 160 172 183 193 209 221 226 230 235 241 248 255 258 262 267 271 273 274 275 277 279 282 284 286 288 291 293
17 39 78 62 347 6 353 350 326 300 279 286 286 315 332 323 319 28 16 153 193 180 169 175 165 173 193 203 208 213 226 235 246 256 261 263 265 267 270 273 274 275 277 279 281 282 283 285 287 289 292 293 295 297
34 34 50 54 35 18 358 353 12 359 299 332 347 340 338 334 271 27 21 20 184 191 195 198 209 224 227 233 244 253 262 267 269 270 272 272 272 274 277 278 279 280 281 282 283 285 287 289 291 293 294 297 299 300